When you browse on this site, cookies collect data to enhance your experience and personalize the content and advertising you see.
Visit our Privacy Policy to learn more. By continuing to use the site, you agree to this use of cookies and data.
  • In Hungary
  • List of Countries
  • For 7 days
  • Water Temperature
  • Satellite Maps
  • Weather Map
  • News
  • Weather Widgets
  • user-avatar
    Login

    Hourly Weather Muskego

    Today, 19 July, Friday

    Time Temperature Precipitation Wind Pressure Humidity
    00:00 +27°C° 3.5 mm 4 mps 734 mmHg 90%
    01:00 +26°C° 2.2 mm 4 mps 734 mmHg 90%
    02:00 +26°C° 2.2 mm 4 mps 734 mmHg 90%
    03:00 +25°C° 2.2 mm 4 mps 733 mmHg 91%
    04:00 +26°C° 0.7 mm 4 mps 734 mmHg 92%
    05:00 +26°C° 0.7 mm 5 mps 734 mmHg 94%
    06:00 +26°C° 0.7 mm 6 mps 734 mmHg 95%
    07:00 +27°C° 0.2 mm 6 mps 734 mmHg 93%
    08:00 +29°C° 0.2 mm 6 mps 734 mmHg 91%
    09:00 +30°C° 0.2 mm 6 mps 734 mmHg 88%
    10:00 +30°C° 0 mm 5 mps 735 mmHg 87%
    11:00 +32°C° 0 mm 5 mps 735 mmHg 86%
    12:00 +32°C° 0 mm 4 mps 735 mmHg 84%
    13:00 +32°C° 0.1 mm 4 mps 735 mmHg 85%
    14:00 +32°C° 0.1 mm 4 mps 735 mmHg 85%
    15:00 +32°C° 0.1 mm 5 mps 734 mmHg 85%
    16:00 +32°C° 0 mm 5 mps 734 mmHg 86%
    17:00 +32°C° 0 mm 4 mps 734 mmHg 87%
    18:00 +32°C° 0 mm 4 mps 734 mmHg 88%
    19:00 +30°C° 0 mm 4 mps 734 mmHg 89%
    20:00 +29°C° 0 mm 4 mps 734 mmHg 91%
    21:00 +29°C° 0 mm 4 mps 734 mmHg 92%
    22:00 +29°C° 0 mm 4 mps 734 mmHg 93%
    23:00 +28°C° 0 mm 4 mps 734 mmHg 94%

    Tomorrow, 20 July, Saturday

    Time Temperature Precipitation Wind Pressure Humidity
    00:00 +28°C° 0 mm 4 mps 734 mmHg 96%
    01:00 +28°C° 0 mm 4 mps 734 mmHg 96%
    02:00 +28°C° 0 mm 4 mps 734 mmHg 96%
    03:00 +28°C° 0 mm 4 mps 734 mmHg 96%
    04:00 +28°C° 0 mm 4 mps 734 mmHg 96%
    05:00 +28°C° 0 mm 4 mps 734 mmHg 95%
    06:00 +28°C° 0 mm 5 mps 734 mmHg 95%
    07:00 +29°C° 0 mm 5 mps 735 mmHg 92%
    08:00 +30°C° 0 mm 5 mps 735 mmHg 88%
    09:00 +32°C° 0 mm 6 mps 735 mmHg 85%
    10:00 +32°C° 0.2 mm 6 mps 736 mmHg 83%
    11:00 +33°C° 0.2 mm 5 mps 736 mmHg 82%
    12:00 +33°C° 0.2 mm 5 mps 736 mmHg 80%
    13:00 +30°C° 1.2 mm 5 mps 736 mmHg 81%
    14:00 +28°C° 1.2 mm 4 mps 736 mmHg 83%
    15:00 +25°C° 1.2 mm 4 mps 735 mmHg 84%
    16:00 +26°C° 0.1 mm 3 mps 735 mmHg 85%
    17:00 +26°C° 0.1 mm 2 mps 736 mmHg 86%
    18:00 +27°C° 0.1 mm 1 mps 736 mmHg 87%
    19:00 +26°C° 1 mm 2 mps 736 mmHg 88%
    20:00 +25°C° 1 mm 2 mps 736 mmHg 90%
    21:00 +22°C° 1 mm 3 mps 736 mmHg 91%
    22:00 +22°C° 1.5 mm 3 mps 736 mmHg 91%
    23:00 +21°C° 1.5 mm 3 mps 736 mmHg 91%

    Day after tomorrow, 21 July, Sunday

    Time Temperature Precipitation Wind Pressure Humidity
    00:00 +21°C° 1.5 mm 3 mps 736 mmHg 90%
    01:00 +21°C° 0.7 mm 3 mps 736 mmHg 91%
    02:00 +21°C° 0.7 mm 3 mps 736 mmHg 92%
    03:00 +21°C° 0.7 mm 3 mps 737 mmHg 93%
    04:00 +21°C° 0 mm 3 mps 737 mmHg 92%
    05:00 +21°C° 0 mm 3 mps 737 mmHg 91%
    06:00 +21°C° 0 mm 3 mps 737 mmHg 90%
    07:00 +22°C° 0 mm 3 mps 738 mmHg 85%
    08:00 +24°C° 0 mm 3 mps 738 mmHg 80%
    09:00 +25°C° 0 mm 3 mps 739 mmHg 75%
    10:00 +26°C° 0 mm 3 mps 739 mmHg 72%
    11:00 +26°C° 0 mm 3 mps 739 mmHg 69%
    12:00 +27°C° 0 mm 4 mps 739 mmHg 66%
    13:00 +26°C° 0 mm 4 mps 739 mmHg 67%
    14:00 +26°C° 0 mm 4 mps 739 mmHg 69%
    15:00 +26°C° 0 mm 4 mps 738 mmHg 70%
    16:00 +25°C° 0 mm 4 mps 739 mmHg 73%
    17:00 +23°C° 0 mm 4 mps 739 mmHg 76%
    18:00 +22°C° 0 mm 3 mps 739 mmHg 79%
    19:00 +21°C° 0 mm 3 mps 739 mmHg 78%
    20:00 +20°C° 0 mm 3 mps 740 mmHg 78%
    21:00 +18°C° 0 mm 3 mps 740 mmHg 77%
    22:00 +18°C° 0 mm 3 mps 740 mmHg 76%
    23:00 +18°C° 0 mm 3 mps 740 mmHg 76%

    22 July, Monday

    Time Temperature Precipitation Wind Pressure Humidity
    00:00 +18°C° 0 mm 3 mps 740 mmHg 75%
    01:00 +17°C° 0 mm 3 mps 740 mmHg 71%
    02:00 +17°C° 0 mm 3 mps 740 mmHg 67%
    03:00 +17°C° 0 mm 3 mps 740 mmHg 64%
    04:00 +17°C° 0 mm 3 mps 740 mmHg 65%
    05:00 +16°C° 0 mm 3 mps 740 mmHg 67%
    06:00 +15°C° 0 mm 4 mps 741 mmHg 68%
    07:00 +17°C° 0 mm 4 mps 741 mmHg 66%
    08:00 +19°C° 0 mm 4 mps 741 mmHg 64%
    09:00 +20°C° 0 mm 4 mps 741 mmHg 62%
    10:00 +21°C° 0 mm 4 mps 741 mmHg 60%
    11:00 +22°C° 0 mm 3 mps 741 mmHg 57%
    12:00 +25°C° 0 mm 3 mps 741 mmHg 55%
    13:00 +25°C° 0 mm 3 mps 741 mmHg 56%
    14:00 +25°C° 0 mm 4 mps 741 mmHg 58%
    15:00 +25°C° 0 mm 4 mps 741 mmHg 59%
    16:00 +25°C° 0 mm 3 mps 741 mmHg 64%
    17:00 +24°C° 0 mm 3 mps 741 mmHg 68%
    18:00 +24°C° 0 mm 2 mps 741 mmHg 72%
    19:00 +21°C° 0 mm 2 mps 741 mmHg 75%
    20:00 +20°C° 0 mm 2 mps 741 mmHg 77%
    21:00 +19°C° 0 mm 2 mps 741 mmHg 80%
    22:00 +18°C° 0 mm 2 mps 741 mmHg 82%
    23:00 +17°C° 0 mm 3 mps 741 mmHg 83%

    23 July, Tuesday

    Time Temperature Precipitation Wind Pressure Humidity
    00:00 +17°C° 0 mm 3 mps 741 mmHg 85%
    01:00 +16°C° 0 mm 3 mps 741 mmHg 85%
    02:00 +16°C° 0 mm 3 mps 741 mmHg 85%
    03:00 +16°C° 0 mm 3 mps 741 mmHg 84%
    04:00 +16°C° 0 mm 3 mps 741 mmHg 84%
    05:00 +16°C° 0 mm 3 mps 742 mmHg 83%
    06:00 +16°C° 0 mm 3 mps 742 mmHg 82%
    07:00 +18°C° 0 mm 3 mps 742 mmHg 79%
    08:00 +20°C° 0 mm 3 mps 742 mmHg 76%
    09:00 +22°C° 0 mm 3 mps 742 mmHg 73%
    10:00 +24°C° 0.3 mm 3 mps 742 mmHg 68%
    11:00 +25°C° 0.3 mm 3 mps 742 mmHg 63%
    12:00 +26°C° 0.3 mm 3 mps 741 mmHg 58%
    13:00 +26°C° 0.1 mm 3 mps 741 mmHg 60%
    14:00 +26°C° 0.1 mm 3 mps 741 mmHg 62%
    15:00 +26°C° 0.1 mm 3 mps 741 mmHg 64%
    16:00 +25°C° 0.2 mm 3 mps 740 mmHg 68%
    17:00 +25°C° 0.2 mm 3 mps 740 mmHg 72%
    18:00 +24°C° 0.2 mm 3 mps 740 mmHg 77%
    19:00 +21°C° 0.2 mm 3 mps 740 mmHg 80%
    20:00 +20°C° 0.2 mm 3 mps 741 mmHg 82%
    21:00 +19°C° 0.2 mm 3 mps 741 mmHg 85%
    22:00 +18°C° 0 mm 3 mps 741 mmHg 86%
    23:00 +17°C° 0 mm 3 mps 741 mmHg 87%

    24 July, Wednesday

    Time Temperature Precipitation Wind Pressure Humidity
    00:00 +17°C° 0 mm 3 mps 741 mmHg 89%
    01:00 +17°C° 0 mm 2 mps 741 mmHg 87%
    02:00 +16°C° 0 mm 2 mps 741 mmHg 86%
    03:00 +16°C° 0 mm 2 mps 741 mmHg 85%
    04:00 +16°C° 0 mm 2 mps 741 mmHg 85%
    05:00 +16°C° 0 mm 2 mps 741 mmHg 85%
    06:00 +17°C° 0 mm 2 mps 742 mmHg 85%
    07:00 +19°C° 0 mm 2 mps 742 mmHg 78%
    08:00 +22°C° 0 mm 1 mps 742 mmHg 71%
    09:00 +24°C° 0 mm 1 mps 742 mmHg 64%
    10:00 +24°C° 0.3 mm 2 mps 742 mmHg 64%
    11:00 +25°C° 0.3 mm 2 mps 742 mmHg 64%
    12:00 +26°C° 0.3 mm 3 mps 742 mmHg 64%
    13:00 +26°C° 0.5 mm 3 mps 742 mmHg 64%
    14:00 +27°C° 0.5 mm 3 mps 741 mmHg 64%
    15:00 +27°C° 0.5 mm 3 mps 741 mmHg 64%
    16:00 +26°C° 0.2 mm 2 mps 741 mmHg 67%
    17:00 +26°C° 0.2 mm 2 mps 741 mmHg 71%
    18:00 +25°C° 0.2 mm 2 mps 741 mmHg 74%
    19:00 +24°C° 0.1 mm 2 mps 741 mmHg 77%
    20:00 +22°C° 0.1 mm 1 mps 741 mmHg 80%
    21:00 +21°C° 0.1 mm 1 mps 741 mmHg 82%
    22:00 +20°C° 0 mm 1 mps 741 mmHg 83%
    23:00 +20°C° 0 mm 1 mps 741 mmHg 83%
    Show more